GW2455 Weather Reports


Display with metric or nautical units.
time (UTC)temp
F
wind
direction
speed
MPH
gust
MPH
rain 1hr
in
rain 24hr
in
rain mn
in
humidity
%
barometer
mb
20260906163832 77 179 11.0 13.0 0.00 0.00 0.00 94 1022.3
20260906163332 77 185 12.0 13.0 0.00 0.00 0.00 94 1022.2
20260906162832 77 187 10.0 13.0 0.00 0.00 0.00 93 1022.3
20260906162329 77 194 9.0 12.0 0.00 0.00 0.00 93 1022.2
20260906161828 78 187 9.0 11.0 0.00 0.00 0.00 93 1022.3
20260906161315 78 196 7.0 12.0 0.00 0.00 0.00 93 1022.3
20260906160811 78 196 8.0 12.0 0.00 0.00 0.00 93 1022.4
20260906160308 78 216 8.0 12.0 0.00 0.00 0.00 93 1022.5
20260906155810 78 203 8.0 12.0 0.00 0.00 0.00 93 1022.5
20260906155308 78 203 9.0 12.0 0.00 0.00 0.00 94 1022.5
20260906154805 77 218 9.0 12.0 0.00 0.00 0.00 94 1022.5
20260906154304 77 184 9.0 12.0 0.00 0.00 0.00 93 1022.5
20260906153804 78 182 9.0 12.0 0.00 0.00 0.00 93 1022.4
20260906153305 78 189 9.0 13.0 0.00 0.00 0.00 93 1022.5
20260906152806 78 191 9.0 13.0 0.00 0.00 0.00 93 1022.5
20260906152306 78 187 8.0 12.0 0.00 0.00 0.00 93 1022.6
20260906151806 78 175 7.0 12.0 0.00 0.00 0.00 94 1022.6
20260906151304 78 199 7.0 11.0 0.00 0.00 0.00 94 1022.6
20260906150803 77 179 7.0 11.0 0.00 0.00 0.00 94 1022.7
20260906150302 77 188 7.0 11.0 0.00 0.00 0.00 94 1022.6
20260906145803 77 185 8.0 10.0 0.00 0.00 0.00 94 1022.6
20260906145306 77 247 8.0 11.0 0.00 0.00 0.00 94 1022.6
20260906144804 77 195 9.0 11.0 0.00 0.00 0.00 94 1022.6
20260906144303 77 191 9.0 11.0 0.00 0.00 0.00 94 1022.6
20260906143803 77 192 8.0 10.0 0.00 0.00 0.00 94 1022.5
20260906143303 77 198 8.0 11.0 0.00 0.00 0.00 94 1022.6
20260906142804 77 191 8.0 11.0 0.00 0.00 0.00 94 1022.6
20260906142306 78 191 8.0 11.0 0.00 0.00 0.00 94 1022.7
20260906141801 78 191 8.0 10.0 0.00 0.00 0.00 94 1022.6
20260906141259 78 191 7.0 11.0 0.00 0.00 0.00 94 1022.7
20260906140756 78 179 7.0 11.0 0.00 0.00 0.00 94 1022.7
20260906140255 78 243 7.0 11.0 0.00 0.00 0.00 94 1022.7
20260906140122 77 225 7.0 11.0 0.00 0.00 0.00 94 1022.7
20260906135252 77 194 8.0 11.0 0.00 0.00 0.00 94 1022.7
20260906134754 77 185 8.0 12.0 0.00 0.00 0.00 94 1022.8
20260906134252 77 206 9.0 12.0 0.00 0.00 0.00 94 1022.7
20260906133751 77 189 9.0 12.0 0.00 0.00 0.00 95 1022.7
20260906133252 77 184 8.0 12.0 0.00 0.00 0.00 95 1022.7
20260906132753 77 185 8.0 12.0 0.00 0.00 0.00 95 1022.7
20260906132250 77 201 9.0 12.0 0.00 0.00 0.00 96 1022.6
20260906131759 76 192 9.0 12.0 0.00 0.00 0.00 96 1022.6
20260906131408 76 208 10.0 13.0 0.00 0.00 0.00 96 1022.6
20260906131126 76 192 10.0 13.0 0.00 0.01 0.00 96 1022.7
20260906125234 76 182 11.0 14.0 0.00 0.01 0.00 96 1022.7
20260906124732 76 179 11.0 14.0 0.00 0.01 0.00 96 1022.7
20260906124232 76 189 11.0 14.0 0.00 0.01 0.00 96 1022.7
20260906123731 76 175 10.0 13.0 0.00 0.01 0.00 96 1022.7
20260906123232 76 187 8.0 10.0 0.00 0.01 0.00 96 1022.8
20260906122730 76 189 7.0 11.0 0.00 0.13 0.00 96 1022.8
20260906122227 76 179 9.0 13.0 0.00 0.15 0.00 96 1022.8
20260906121729 76 164 9.0 13.0 0.00 0.15 0.00 96 1022.8
20260906121226 76 165 9.0 13.0 0.00 0.15 0.00 96 1022.7
20260906121040 76 175 10.0 13.0 0.00 0.15 0.00 96 1022.8
20260906120224 75 175 10.0 13.0 0.00 0.15 0.00 96 1022.9
20260906115721 76 165 8.0 12.0 0.00 0.15 0.00 96 1022.8
20260906115218 76 170 10.0 14.0 0.00 0.15 0.00 96 1022.8
20260906114715 76 154 11.0 15.0 0.00 0.15 0.00 96 1022.8
20260906114216 76 160 13.0 15.0 0.00 0.15 0.00 96 1022.8
20260906113809 76 165 12.0 15.0 0.00 0.15 0.00 96 1022.8
20260906112711 76 178 11.0 14.0 0.00 0.15 0.00 96 1022.7
20260906112209 76 151 9.0 14.0 0.00 0.15 0.00 96 1022.7
20260906111707 76 164 11.0 14.0 0.00 0.15 0.00 96 1022.7
20260906111206 76 174 8.0 14.0 0.00 0.15 0.00 96 1022.6
20260906111028 76 172 9.0 14.0 0.00 0.15 0.00 96 1022.6
20260906110525 76 168 10.0 13.0 0.00 0.15 0.00 96 1022.6
20260906105706 76 172 9.0 14.0 0.00 0.15 0.00 96 1022.6
20260906105153 76 163 9.0 15.0 0.00 0.15 0.00 96 1022.5
20260906104653 76 158 11.0 15.0 0.00 0.15 0.00 96 1022.5
20260906104148 75 155 13.0 15.0 0.00 0.15 0.00 96 1022.5
20260906103648 75 177 10.0 13.0 0.00 0.15 0.00 96 1022.4
20260906103144 75 163 8.0 14.0 0.00 0.15 0.00 97 1022.5
20260906102643 75 178 9.0 14.0 0.00 0.15 0.00 97 1022.5
20260906102138 75 158 9.0 13.0 0.00 0.15 0.00 97 1022.4
20260906101635 75 172 8.0 12.0 0.00 0.15 0.00 97 1022.4
20260906101134 75 195 9.0 12.0 0.00 0.15 0.00 97 1022.3
20260906100633 75 175 9.0 12.0 0.00 0.15 0.00 97 1022.4
20260906100441 75 182 8.0 11.0 0.00 0.15 0.00 97 1022.3
20260906095634 75 144 9.0 11.0 0.00 0.15 0.00 97 1022.2
20260906095132 75 172 7.0 11.0 0.00 0.15 0.00 97 1022.2
20260906094949 75 175 8.0 11.0 0.00 0.15 0.00 97 1022.2
20260906094131 75 164 8.0 12.0 0.00 0.15 0.00 97 1022.2
20260906093632 75 177 9.0 12.0 0.00 0.15 0.00 97 1022.2
20260906093133 75 168 7.0 10.0 0.00 0.15 0.00 97 1022.1
20260906092633 75 185 7.0 11.0 0.00 0.15 0.00 97 1022.2
20260906092441 75 201 6.0 11.0 0.00 0.15 0.00 97 1022.2
20260906091631 75 178 8.0 11.0 0.00 0.15 0.00 97 1022.2
20260906091132 75 178 8.0 10.0 0.00 0.15 0.00 97 1022.0
20260906090632 75 201 8.0 10.0 0.00 0.15 0.00 97 1022.1
20260906090131 75 174 5.0 6.0 0.00 0.15 0.00 97 1022.2
20260906085632 75 181 4.0 6.0 0.00 0.15 0.00 97 1022.1
20260906085132 75 194 4.0 6.0 0.00 0.15 0.00 97 1022.1
20260906084632 75 205 5.0 7.0 0.00 0.15 0.00 97 1022.0
20260906084450 75 189 5.0 7.0 0.00 0.15 0.00 97 1022.0
20260906083630 75 194 6.0 7.0 0.00 0.15 0.00 97 1021.9
20260906083132 75 194 5.0 7.0 0.00 0.15 0.00 97 1021.9
20260906082735 75 195 5.0 7.0 0.00 0.15 0.00 97 1021.8
20260906081633 75 187 5.0 7.0 0.00 0.15 0.00 97 1021.7
20260906081132 75 191 4.0 6.0 0.00 0.15 0.00 97 1021.7
20260906080633 75 219 4.0 7.0 0.00 0.15 0.00 97 1021.6
20260906080133 75 213 6.0 7.0 0.00 0.15 0.00 97 1021.7
20260906075632 75 222 6.0 7.0 0.00 0.15 0.00 97 1021.6
20260906075445 75 218 6.0 7.0 0.00 0.15 0.00 97 1021.6
20260906074946 75 213 6.0 9.0 0.00 0.15 0.00 97 1021.5
20260906074128 75 222 6.0 10.0 0.00 0.15 0.00 97 1021.5
20260906073932 75 213 7.0 10.0 0.00 0.15 0.00 97 1021.5
20260906073122 75 208 7.0 10.0 0.00 0.15 0.00 96 1021.4
20260906072622 75 209 7.0 9.0 0.00 0.15 0.00 96 1021.3
20260906072120 75 182 6.0 9.0 0.00 0.15 0.00 97 1021.3
20260906071618 75 218 6.0 9.0 0.00 0.15 0.00 97 1021.3
20260906071114 75 202 7.0 9.0 0.00 0.15 0.00 97 1021.2
20260906070613 75 202 6.0 9.0 0.00 0.15 0.00 96 1021.2
20260906070111 75 206 7.0 9.0 0.00 0.15 0.00 96 1021.2
20260906065610 75 209 6.0 9.0 0.00 0.15 0.00 96 1021.1
20260906065105 74 227 6.0 11.0 0.00 0.15 0.00 96 1021.1
20260906064604 74 225 7.0 12.0 0.00 0.15 0.00 96 1021.0
20260906064106 74 216 8.0 13.0 0.00 0.15 0.00 96 1021.0
20260906063603 74 236 9.0 13.0 0.00 0.15 0.00 96 1020.9
20260906063102 74 208 7.0 12.0 0.00 0.15 0.00 96 1020.8
20260906062924 75 164 7.0 12.0 0.00 0.15 0.00 96 1020.8
20260906062103 75 225 6.0 10.0 0.00 0.15 0.00 96 1020.8
20260906061600 75 212 6.0 10.0 0.00 0.15 0.00 96 1020.8
20260906061059 75 223 6.0 10.0 0.00 0.15 0.00 96 1020.7
20260906060558 75 239 6.0 10.0 0.00 0.15 0.00 96 1020.7
20260906060056 75 219 6.0 9.0 0.00 0.15 0.00 96 1020.7
20260906055554 75 213 5.0 9.0 0.00 0.15 0.00 96 1020.6
20260906055406 75 222 4.0 9.0 0.00 0.15 0.00 96 1020.7
20260906054552 75 189 5.0 9.0 0.00 0.15 0.00 95 1020.7
20260906054403 75 196 5.0 11.0 0.00 0.15 0.00 95 1020.7
20260906053550 75 184 5.0 11.0 0.00 0.15 0.00 95 1020.8
20260906053047 75 210 6.0 13.0 0.00 0.15 0.00 95 1020.7
20260906052547 75 201 9.0 14.0 0.00 0.15 0.00 95 1020.7
20260906052402 75 175 10.0 15.0 0.00 0.15 0.00 95 1020.7
20260906051857 75 179 11.0 15.0 0.00 0.15 0.00 95 1020.5
20260906051045 74 219 7.0 12.0 0.00 0.15 0.00 95 1020.6
20260906050542 74 179 10.0 13.0 0.00 0.15 0.00 95 1020.6
20260906050043 74 165 9.0 13.0 0.00 0.15 0.00 95 1020.6
20260906045533 74 172 9.0 11.0 0.00 0.15 0.00 95 1020.6
20260906045032 74 168 9.0 12.0 0.00 0.15 0.00 95 1020.6
20260906044530 74 179 8.0 13.0 0.00 0.15 0.00 95 1020.7
20260906044347 74 181 11.0 13.0 0.00 0.15 0.00 95 1020.6
20260906043530 74 167 10.0 14.0 0.00 0.15 0.00 95 1020.6
20260906043028 74 163 12.0 14.0 0.00 0.15 0.00 95 1020.6
20260906042526 74 161 9.0 13.0 0.00 0.15 0.00 95 1020.6
20260906042028 74 151 9.0 13.0 0.00 0.15 0.00 95 1020.6
20260906041844 74 164 9.0 12.0 0.00 0.15 0.00 95 1020.5
20260906041021 74 151 9.0 12.0 0.00 0.15 0.00 95 1020.5
20260906040517 74 177 8.0 11.0 0.00 0.15 0.00 95 1020.6
20260906040019 74 181 9.0 11.0 0.00 0.15 0.00 95 1020.6
20260906035516 74 208 7.0 11.0 0.00 0.15 0.00 95 1020.6
20260906035011 74 206 9.0 12.0 0.00 0.15 0.00 95 1020.7
20260906034508 74 188 9.0 12.0 0.00 0.15 0.00 95 1020.7
20260906034007 74 178 9.0 12.0 0.00 0.15 0.00 95 1020.7
20260906033816 74 181 7.0 11.0 0.00 0.15 0.00 96 1020.7
20260906033324 74 177 9.0 12.0 0.00 0.15 0.00 96 1020.7
20260906032502 74 175 6.0 12.0 0.00 0.15 0.00 95 1020.8
20260906031959 74 163 10.0 14.0 0.00 0.15 0.00 95 1020.8
20260906031820 74 165 11.0 14.0 0.00 0.15 0.00 95 1020.8
20260906030959 74 157 11.0 14.0 0.00 0.15 0.00 95 1020.9
20260906030454 74 161 10.0 14.0 0.00 0.15 0.00 95 1020.9
20260906025953 74 160 10.0 14.0 0.00 0.15 0.00 95 1021.0
20260906025545 74 154 10.0 12.0 0.00 0.15 0.00 94 1021.1
20260906024438 74 171 5.0 9.0 0.00 0.15 0.00 94 1021.1
20260906023937 74 192 3.0 6.0 0.00 0.15 0.00 94 1021.2
20260906023437 73 264 1.0 4.0 0.00 0.15 0.00 93 1021.1
20260906022934 73 243 1.0 4.0 0.00 0.15 0.00 93 1021.3
20260906022748 73 243 2.0 4.0 0.00 0.15 0.00 93 1021.3
20260906021933 73 212 2.0 4.0 0.00 0.15 0.00 92 1021.4
20260906021434 73 30 0.0 0.0 0.00 0.15 0.00 92 1021.3
20260906020934 73 30 0.0 0.0 0.00 0.15 0.00 92 1021.3
20260906020524 73 30 0.0 0.0 0.00 0.15 0.00 92 1021.3
20260906015425 73 30 0.0 4.0 0.00 0.15 0.00 92 1021.3
20260906014924 73 30 1.0 4.0 0.00 0.15 0.00 92 1021.3
20260906014424 73 30 2.0 4.0 0.00 0.15 0.00 92 1021.4
20260906013925 73 24 2.0 3.0 0.00 0.15 0.00 92 1021.5
20260906013420 73 24 1.0 2.0 0.00 0.15 0.00 92 1021.5
20260906012916 73 24 1.0 4.0 0.00 0.15 0.00 92 1021.5
20260906012414 73 24 2.0 4.0 0.00 0.15 0.00 92 1021.6
20260906011913 73 24 2.0 4.0 0.00 0.15 0.00 92 1021.7
20260906011412 72 24 2.0 5.0 0.00 0.15 0.00 92 1021.7
20260906011225 72 24 3.0 5.0 0.00 0.15 0.00 92 1021.6
20260906010411 72 24 4.0 5.0 0.00 0.15 0.00 92 1021.5
20260906005910 72 24 2.0 4.0 0.00 0.15 0.00 91 1021.5
20260906005410 72 24 2.0 7.0 0.00 0.15 0.00 92 1021.5
20260906004906 72 24 4.0 7.0 0.00 0.15 0.00 92 1021.4
20260906004406 72 21 6.0 9.0 0.00 0.15 0.00 91 1021.3
20260906003906 72 30 6.0 9.0 0.00 0.15 0.00 91 1021.4
20260906003406 71 14 6.0 9.0 0.00 0.15 0.00 91 1021.4
20260906002905 71 30 6.0 7.0 0.00 0.15 0.00 91 1021.3
20260906002505 71 30 6.0 7.0 0.00 0.15 0.00 91 1021.3
20260906001741 71 17 4.0 6.0 0.00 0.15 0.00 90 1021.4
20260906000856 71 21 5.0 9.0 0.00 0.15 0.00 90 1021.3
20260906000351 71 23 6.0 9.0 0.00 0.15 0.00 91 1021.4
20260905235850 71 7 6.0 9.0 0.00 0.15 0.15 91 1021.3
20260905235704 71 14 6.0 9.0 0.00 0.15 0.15 91 1021.4
20260905234849 71 8 6.0 7.0 0.00 0.15 0.15 91 1021.3
20260905234701 71 30 3.0 6.0 0.00 0.15 0.15 91 1021.4
20260905233841 71 34 5.0 6.0 0.00 0.15 0.15 91 1021.2
20260905233714 71 30 5.0 7.0 0.00 0.15 0.15 91 1021.2
20260905232839 71 23 5.0 7.0 0.00 0.15 0.15 91 1021.3
20260905232641 71 30 5.0 7.0 0.00 0.15 0.15 91 1021.3
20260905232253 71 33 5.0 6.0 0.00 0.15 0.15 91 1021.3
20260905230833 71 30 5.0 10.0 0.00 0.15 0.15 90 1021.3
20260905230333 71 15 7.0 10.0 0.00 0.15 0.15 90 1021.2
20260905230207 71 21 7.0 10.0 0.00 0.15 0.15 90 1021.3
20260905225332 71 28 5.0 6.0 0.00 0.15 0.15 90 1021.3
20260905224832 72 33 4.0 6.0 0.00 0.15 0.15 90 1021.3
20260905224332 72 30 5.0 5.0 0.00 0.15 0.15 90 1021.3
20260905223832 72 34 4.0 5.0 0.00 0.15 0.15 91 1021.4
20260905223334 71 37 4.0 9.0 0.00 0.15 0.15 91 1021.3
20260905222833 71 43 4.0 9.0 0.00 0.15 0.15 91 1021.5
20260905222330 71 53 4.0 6.0 0.00 0.15 0.15 91 1021.5
20260905221829 71 40 3.0 4.0 0.00 0.15 0.15 91 1021.4
20260905221319 71 81 2.0 4.0 0.00 0.15 0.15 91 1021.4
20260905220822 71 58 2.0 6.0 0.00 0.15 0.15 91 1021.4
20260905220320 72 58 2.0 9.0 0.00 0.15 0.15 91 1021.3
20260905215816 72 23 5.0 9.0 0.00 0.15 0.15 90 1021.2
20260905215307 72 30 6.0 9.0 0.00 0.15 0.15 90 1021.1
20260905215118 72 25 6.0 9.0 0.00 0.15 0.15 91 1021.2
20260905214306 72 15 4.0 7.0 0.00 0.15 0.15 91 1021.1
20260905213805 72 53 5.0 7.0 0.00 0.15 0.15 91 1021.2
20260905213304 71 46 2.0 7.0 0.00 0.15 0.15 91 1021.2
20260905212903 71 57 5.0 10.0 0.00 0.15 0.15 91 1021.1
20260905211805 71 77 4.0 9.0 0.00 0.15 0.15 91 1020.9
20260905211301 72 79 6.0 9.0 0.00 0.15 0.15 91 1020.8
20260905210758 72 64 5.0 7.0 0.00 0.15 0.15 91 1020.7
20260905210300 72 92 3.0 7.0 0.00 0.15 0.15 91 1020.7
20260905205758 72 74 4.0 7.0 0.00 0.15 0.15 91 1020.7
20260905205256 72 77 4.0 5.0 0.00 0.15 0.15 91 1020.6
20260905204755 72 72 2.0 4.0 0.00 0.15 0.15 91 1020.4
20260905204255 72 54 2.0 7.0 0.00 0.15 0.15 91 1020.3
20260905203756 72 41 3.0 7.0 0.00 0.15 0.15 91 1020.3
20260905203251 72 54 4.0 7.0 0.00 0.15 0.15 91 1020.3
20260905202743 72 30 5.0 7.0 0.00 0.15 0.15 91 1020.3
20260905202241 72 46 5.0 7.0 0.00 0.15 0.15 91 1020.2
20260905201741 72 61 4.0 9.0 0.00 0.15 0.15 91 1020.2
20260905201612 72 78 6.0 9.0 0.00 0.15 0.15 91 1020.1
20260905200735 72 64 6.0 9.0 0.00 0.15 0.15 91 1020.1
20260905200233 72 67 5.0 9.0 0.00 0.15 0.15 91 1020.1
20260905195732 72 46 3.0 11.0 0.00 0.15 0.15 91 1020.1
20260905195234 72 48 7.0 11.0 0.00 0.15 0.15 90 1019.9
20260905194733 73 46 3.0 9.0 0.00 0.15 0.15 91 1019.8
20260905194232 73 68 5.0 9.0 0.00 0.15 0.15 90 1019.9
20260905193734 73 69 5.0 7.0 0.00 0.15 0.15 90 1019.8
20260905193233 73 75 4.0 9.0 0.00 0.15 0.15 91 1019.6
20260905192732 73 91 5.0 10.0 0.00 0.15 0.15 91 1019.6
20260905192548 73 81 6.0 13.0 0.00 0.15 0.15 91 1019.5
20260905191731 73 77 9.0 13.0 0.00 0.15 0.15 90 1019.5
20260905191557 73 78 6.0 10.0 0.00 0.15 0.15 90 1019.5
20260905190731 73 86 7.0 10.0 0.00 0.15 0.15 90 1019.4
20260905190233 74 82 9.0 10.0 0.00 0.15 0.15 90 1019.5
20260905185731 74 86 6.0 10.0 0.00 0.15 0.15 90 1019.4
20260905185230 74 91 6.0 10.0 0.00 0.15 0.15 89 1019.4
20260905184728 74 82 6.0 11.0 0.00 0.15 0.15 89 1019.3
20260905184219 74 65 6.0 11.0 0.00 0.15 0.15 89 1019.2
20260905183720 74 82 7.0 11.0 0.00 0.15 0.15 89 1019.2
20260905183217 74 92 7.0 9.0 0.00 0.15 0.15 89 1019.2
20260905183035 74 96 6.0 10.0 0.00 0.15 0.15 89 1019.1
20260905182211 75 68 7.0 10.0 0.00 0.15 0.15 89 1019.1
20260905181711 75 68 7.0 10.0 0.00 0.15 0.15 89 1019.1
20260905181212 75 91 7.0 12.0 0.00 0.15 0.15 89 1019.1
20260905180708 75 57 7.0 12.0 0.00 0.15 0.15 89 1018.9
20260905180208 75 79 5.0 10.0 0.00 0.15 0.15 90 1018.9
20260905175802 75 89 8.0 10.0 0.00 0.15 0.15 89 1018.9
20260905174705 75 74 6.0 10.0 0.00 0.15 0.15 90 1018.8
20260905174204 75 101 4.0 9.0 0.00 0.15 0.15 90 1018.9
20260905173703 75 102 6.0 10.0 0.00 0.15 0.15 90 1018.8
20260905173203 75 139 6.0 10.0 0.00 0.15 0.15 90 1018.9
20260905173017 75 109 6.0 11.0 0.00 0.15 0.15 91 1018.9
20260905172203 75 134 8.0 11.0 0.00 0.15 0.15 90 1018.9
20260905171719 75 115 7.0 10.0 0.00 0.15 0.15 90 1018.8
20260905171202 75 85 6.0 10.0 0.00 0.15 0.15 91 1018.7
20260905171020 75 113 7.0 10.0 0.00 0.15 0.15 91 1018.8
20260905170203 75 96 5.0 9.0 0.00 0.15 0.15 91 1018.8
20260905165703 75 129 5.0 9.0 0.00 0.15 0.15 91 1018.8
20260905165202 75 112 7.0 10.0 0.00 0.15 0.15 91 1018.7
20260905164807 75 137 4.0 11.0 0.00 0.15 0.15 91 1018.7